Location: Brede
(50.9167°N, 0.6000°E)
Time: 12:08:30
(UTC+00:00)

Courier 1B Rocket - Visible Passes

Search period start: 30 November 2020 00:00
Search period end: 10 December 2020 00:00
Orbit: 920 x 1202 km, 28.2° (Epoch: 29 November)

Date Brightness Start Highest point End Pass type
(mag) Time Alt. Az. Time Alt. Az. Time Alt. Az.
30 Nov 7.7 06:40:32 10° SSW 06:43:03 12° S 06:45:32 10° SSE visible
01 Dec 7.7 05:40:14 10° S 05:42:20 11° S 05:44:26 10° SSE visible
02 Dec 7.6 06:31:00 10° SSW 06:33:39 12° S 06:36:17 10° SSE visible
03 Dec 7.6 05:30:13 10° SSW 05:32:55 12° S 05:35:38 10° SSE visible
04 Dec 7.5 04:30:02 10° S 04:32:12 11° S 04:34:23 10° SSE visible
04 Dec 7.6 06:22:03 10° SSW 06:24:14 11° S 06:26:25 10° S visible
05 Dec 7.5 05:20:49 10° SSW 05:23:31 12° S 05:26:13 10° SSE visible
06 Dec 7.4 04:21:14 11° S 04:22:47 12° S 04:25:25 10° SSE visible
07 Dec 7.5 05:12:02 10° SSW 05:14:06 11° S 05:16:11 10° S visible
08 Dec 7.4 04:13:10 12° S 04:13:23 12° S 04:15:52 10° SSE visible
